Hourly Data Report for September 15, 2010

IQALUIT CLIMATE
NUNAVUT

63°44'50.000" N
68°32'40.000" W
33.50 m
2402592
71321
XFB

Download Data

Hourly Data (September 2010)
Hourly Data Report for September 15, 2010
TIME
LST
Temp Definition
°C
Dew Point Definition
°C
Rel Hum Definition
%
Precip. Amount Definition
mm

Wind Dir Definition
10's deg

Wind Spd Definition
km/h
Visibility Definition
km
Stn Press Definition
kPa
Hmdx Definition


Wind Chill Definition


Weather Definition


00:00 4.8 4.5 98   14 11   100.79     LegendNANA
01:00 4.5 4.4 99   14 6   100.81     LegendNANA
02:00 5.1 5.0 99   29 2   100.82     LegendNANA
03:00 5.5 5.5 100   30 4   100.82     LegendNANA
04:00 4.5 4.5 100   26 4   100.85     LegendNANA
05:00 4.7 4.5 99     0   100.89     LegendNANA
06:00 5.4 5.3 99   26 4   100.92     LegendNANA
07:00 5.6 5.4 99   29 2   100.95     LegendNANA
08:00 5.8 5.5 98   19 2   100.96     LegendNANA
09:00 5.8 5.4 97   11 4   100.96     LegendNANA
10:00 6.2 5.8 97   20 4   100.95     LegendNANA
11:00 6.7 6.5 99     0   100.94     LegendNANA
12:00 6.5 6.2 98   14 4   100.94     LegendNANA
13:00 6.9 6.4 97   20 4   100.96     LegendNANA
14:00 7.4 6.9 97   15 4   100.98     LegendNANA
15:00 6.5 6.0 97   12 4   101.00     LegendNANA
16:00 6.2 5.9 98   15 6   101.01     LegendNANA
17:00 6.0 6.0 100   19 4   101.02     LegendNANA
18:00 5.9 5.9 100   17 2   101.03     LegendNANA
19:00 6.0 6.0 100   13 2   101.04     LegendNANA
20:00 5.5 5.5 100   16 2   101.06     LegendNANA
21:00 5.7 5.7 100   17 4   101.03     LegendNANA
22:00 5.9 5.9 100   16 4   101.02     LegendNANA
23:00 5.5 5.5 100   16 4   101.02     LegendNANA

Notes on Data Quality.

Legend

  • E = Estimated
  • M = Missing
  • NA = Not Available*
  • [empty] = Indicates an unobserved value
Date modified: